Flag for Turkey Weather past 2 weeks in Ankara, Turkey

Now
30 °F

Ice fog.


Feels Like: 27 °F
Forecast: 26 / 51 °F
Wind: 3 mph from North

Location: Ankara / Esenboga

Current Time: Jan 27, 2015 at 1:13:06 AM

Latest Report: Jan 27, 2015 at 12:50 AM


Visibility: 2 mi

Pressure: 30.09 "Hg

Humidity: 100%

Dew point: 30 °F

Location of AnkaraLocation

Historic Weather in Ankara — Graph

°F

Ankara temperature yesterday

Maximum temperature yesterday: 48 °F (at 1:50 PM)
Minimum temperature yesterday: 30 °F (at 12:50 AM)
Average temperature yesterday: 37 °F

Past Weeks' High & Low Weather Summary

 TemperatureHumidityPressure
High48 °F (Jan 24, 1:20 PM)100% (Jan 11, 11:20 PM)30.42 "Hg (Jan 11, 11:20 PM)
Low16 °F (Jan 15, 5:20 AM)46% (Jan 24, 1:20 PM)29.89 "Hg (Jan 24, 1:20 PM)
Average31 °F88%30.15 "Hg
* Reported Jan 11 11:20 PM — Jan 26 11:50 PM, Ankara, Weather by CustomWeather, © 2014

Note: Actual official high and low records may vary slightly from our data, if they occured in-between our weather recording intervals... More about our weather records

Advertising

Ankara weather history for previous 24 hours

 ConditionsComfort  
Time TempWeatherWind HumidityBarometerVisibility
11:50 PM
Jan 26
32 °FIce fog.1 mph93%30.12 "Hg3 mi
11:20 PM34 °FFog.1 mph87%30.12 "Hg3 mi
10:50 PM32 °FPassing clouds.2 mph100%30.12 "Hg4 mi
10:20 PM32 °FPassing clouds.3 mph93%30.09 "Hg4 mi
9:50 PM34 °FPassing clouds.6 mph93%30.12 "Hg4 mi
9:20 PM34 °FPassing clouds.5 mph93%30.12 "Hg4 mi
8:50 PM34 °FPassing clouds.2 mph93%30.12 "Hg5 mi
8:20 PM34 °FPassing clouds.2 mph93%30.12 "Hg4 mi
7:50 PM36 °FClear.1 mph87%30.12 "Hg10 mi
7:20 PM37 °FPassing clouds.3 mph81%30.12 "HgN/A
6:50 PM39 °FClear.1 mph81%30.12 "Hg10 mi
6:20 PM39 °FPassing clouds.1 mph81%30.09 "HgN/A
5:50 PM39 °FPassing clouds.3 mph81%30.09 "HgN/A
5:20 PM41 °FPassing clouds.2 mph76%30.09 "HgN/A
4:50 PM45 °FScattered clouds.3 mph71%30.07 "HgN/A
4:20 PM46 °FScattered clouds.5 mph66%30.07 "HgN/A
3:50 PM46 °FScattered clouds.6 mph62%30.07 "HgN/A
3:20 PM46 °FScattered clouds.5 mph66%30.07 "HgN/A
2:50 PM48 °FScattered clouds.7 mph62%30.07 "HgN/A
2:20 PM48 °FScattered clouds.3 mph62%30.07 "HgN/A
1:50 PM48 °FScattered clouds.3 mph62%30.07 "HgN/A
1:20 PM46 °FScattered clouds.5 mph71%30.07 "HgN/A
12:50 PM45 °FScattered clouds.3 mph76%30.07 "Hg5 mi
12:20 PM43 °FScattered clouds.2 mph81%30.07 "Hg5 mi
11:50 AM41 °FScattered clouds.1 mph87%30.07 "Hg4 mi
11:20 AM39 °FScattered clouds.2 mph93%30.09 "Hg4 mi
10:50 AM39 °FScattered clouds.1 mph87%30.09 "Hg4 mi
10:20 AM37 °FScattered clouds.2 mph93%30.09 "Hg4 mi
9:50 AM39 °FFog.No wind87%30.09 "Hg2 mi
9:20 AM36 °FFog.3 mph93%30.07 "Hg1 mi
8:50 AM36 °FFog.2 mph93%30.07 "Hg1 mi
8:20 AM34 °FFog.3 mph93%30.07 "Hg1 mi
7:50 AM32 °FIce fog.6 mph100%30.07 "Hg1 mi
7:20 AM32 °FIce fog.1 mph100%30.07 "Hg1 mi
6:50 AM32 °FIce fog.1 mph100%30.04 "Hg2 mi
6:20 AM32 °FIce fog.1 mph100%30.04 "Hg2 mi
5:50 AM32 °FIce fog.1 mph100%30.04 "Hg1 mi
5:20 AM32 °FIce fog.3 mph100%30.04 "Hg1 mi
4:50 AM32 °FLight rain. Ice fog.5 mph100%30.04 "Hg1 mi
4:20 AM32 °FLight rain. Ice fog.2 mph100%30.04 "Hg1 mi
3:50 AM32 °FLight rain. Passing clouds.7 mph93%30.04 "Hg1 mi
3:20 AM30 °FLight rain. Partly cloudy.1 mph100%30.04 "Hg1 mi
2:50 AM30 °FLight rain. Partly cloudy.2 mph100%30.04 "Hg1 mi
2:20 AM32 °FPassing clouds.3 mph93%30.04 "Hg1 mi
1:50 AM30 °FIce fog.2 mph100%30.04 "Hg2 mi
1:20 AM30 °FPassing clouds.3 mph100%30.04 "Hg4 mi
Weather by CustomWeather, © 2014

See weather overviewHow to use our weather pages